This demonstration page uses our WeatherBlox Daily Observations layout. Learn more.

Hourly Observations for December 31, 2016

Temp ( °F °C ) Dew Point ( °F °C ) Humidity (%) Winds ( mph kmh ) Pressure ( in mb ) Visibility ( mi km ) Precip ( " mm )
12:15 am 00:15 Clear 32 0 21 -6 64 64 Calm 30.15 1021 10 16.0934 0 0
12:35 am 00:35 Clear 32 0 21 -6 64 64 S 5 7 30.15 1021 10 16.0934 0 0
12:55 am 00:55 Clear 30 -1 21 -6 69 69 S 3 6 30.15 1021 10 16.0934 0 0
1:15 am 01:15 Clear 32 0 21 -6 64 64 S 6 9 30.15 1021 10 16.0934 0 0
1:35 am 01:35 Clear 30 -1 21 -6 69 69 SSW 3 6 30.15 1021 10 16.0934 0 0
1:55 am 01:55 Clear 28 -2 21 -6 74 74 S 3 6 30.15 1021 10 16.0934 0 0
2:15 am 02:15 Clear 30 -1 21 -6 69 69 S 6 9 30.15 1021 10 16.0934 0 0
2:35 am 02:35 Clear 28 -2 21 -6 74 74 SW 5 7 30.15 1021 10 16.0934 0 0
2:55 am 02:55 Clear 27 -3 23 -5 86 86 SW 3 6 30.18 1022 10 16.0934 0 0
3:15 am 03:15 Clear 27 -3 23 -5 86 86 WSW 3 6 30.18 1022 10 16.0934 0 0
3:35 am 03:35 Clear 28 -2 21 -6 74 74 WSW 3 6 30.18 1022 10 16.0934 0 0
3:55 am 03:55 Clear 28 -2 21 -6 74 74 SW 3 6 30.18 1022 10 16.0934 0 0
4:15 am 04:15 Clear 28 -2 21 -6 74 74 S 5 7 30.18 1022 10 16.0934 0 0
4:35 am 04:35 Clear 28 -2 21 -6 74 74 SSW 5 7 30.18 1022 10 16.0934 0 0
4:55 am 04:55 Clear 28 -2 21 -6 74 74 SW 5 7 30.18 1022 10 16.0934 0 0
5:15 am 05:15 Clear 28 -2 21 -6 74 74 SSW 3 6 30.18 1022 10 16.0934 0 0
5:35 am 05:35 Clear 28 -2 21 -6 74 74 SSW 5 7 30.18 1022 10 16.0934 0 0
5:55 am 05:55 Clear 27 -3 21 -6 80 80 S 3 6 30.18 1022 10 16.0934 0 0
6:15 am 06:15 Clear 25 -4 21 -6 86 86 SSW 3 6 30.18 1022 10 16.0934 0 0
6:35 am 06:35 Clear 27 -3 21 -6 80 80 SSW 3 6 30.18 1022 10 16.0934 0 0
6:55 am 06:55 Clear 27 -3 21 -6 80 80 S 3 6 30.18 1022 10 16.0934 0 0
7:15 am 07:15 Clear 28 -2 21 -6 74 74 S 3 6 30.18 1022 10 16.0934 0 0
7:35 am 07:35 Sunny 27 -3 21 -6 80 80 S 5 7 30.18 1022 10 16.0934 0 0
7:55 am 07:55 Sunny 27 -3 21 -6 80 80 SSW 3 6 30.18 1022 10 16.0934 0 0
8:15 am 08:15 Sunny 28 -2 23 -5 80 80 SSW 3 6 30.18 1022 10 16.0934 0 0
8:35 am 08:35 Sunny 30 -1 23 -5 75 75 S 5 7 30.18 1022 10 16.0934 0 0
8:55 am 08:55 Sunny 30 -1 23 -5 75 75 S 7 11 30.15 1021 10 16.0934 0 0
9:15 am 09:15 Sunny 32 0 23 -5 69 69 S 6 9 30.15 1021 10 16.0934 0 0
9:35 am 09:35 Sunny 32 0 23 -5 69 69 S 8 13 30.15 1021 10 16.0934 0 0
9:55 am 09:55 Sunny 34 1 25 -4 70 70 SSW 9 15 30.15 1021 10 16.0934 0 0
10:15 am 10:15 Sunny 36 2 25 -4 65 65 undefined N/A 30.15 1021 10 16.0934 0 0
10:35 am 10:35 Sunny 37 3 25 -4 60 60 S 9 15 30.12 1020 10 16.0934 0 0
10:55 am 10:55 Sunny 39 4 27 -3 61 61 undefined N/A 30.12 1020 10 16.0934 0 0
11:15 am 11:15 Sunny 39 4 25 -4 56 56 undefined N/A 30.12 1020 10 16.0934 0 0
11:35 am 11:35 Sunny 41 5 27 -3 57 57 undefined N/A 30.09 1019 10 16.0934 0 0
11:55 am 11:55 Sunny 41 5 27 -3 57 57 undefined N/A 30.09 1019 10 16.0934 0 0
12:15 pm 12:15 Sunny 43 6 27 -3 53 53 undefined N/A 30.06 1018 10 16.0934 0 0
12:35 pm 12:35 Sunny 43 6 27 -3 53 53 undefined N/A 30.03 1017 10 16.0934 0 0
12:55 pm 12:55 Partly Cloudy 45 7 25 -4 46 46 undefined N/A 30.03 1017 10 16.0934 0 0
1:15 pm 13:15 Partly Cloudy 46 8 25 -4 43 43 SSW 20 31 30.03 1017 10 16.0934 0 0
1:35 pm 13:35 Partly Cloudy 48 9 25 -4 40 40 undefined N/A 30 1016 10 16.0934 0 0
1:55 pm 13:55 Partly Cloudy 46 8 25 -4 43 43 SSW 16 26 30 1016 10 16.0934 0 0
2:15 pm 14:15 Sunny 46 8 27 -3 46 46 SSW 13 20 30.03 1017 10 16.0934 0 0
2:35 pm 14:35 Partly Cloudy 46 8 25 -4 43 43 SSW 14 22 30 1016 10 16.0934 0 0
2:55 pm 14:55 Cloudy 46 8 27 -3 46 46 undefined N/A 30 1016 10 16.0934 0 0
3:15 pm 15:15 Partly Cloudy 46 8 25 -4 43 43 S 10 17 30 1016 10 16.0934 0 0
3:35 pm 15:35 Partly Cloudy 46 8 25 -4 43 43 SSW 18 30 30 1016 10 16.0934 0 0
3:55 pm 15:55 Partly Cloudy 46 8 25 -4 43 43 SSW 16 26 29.97 1015 10 16.0934 0 0
4:15 pm 16:15 Partly Cloudy 46 8 25 -4 43 43 SSW 16 26 29.97 1015 10 16.0934 0 0
4:35 pm 16:35 Partly Cloudy 46 8 25 -4 43 43 SSW 18 30 30 1016 10 16.0934 0 0
4:55 pm 16:55 Mostly Cloudy 46 8 25 -4 43 43 SSW 14 22 30 1016 10 16.0934 0 0
5:15 pm 17:15 Cloudy 46 8 23 -5 40 40 SSW 16 26 30 1016 10 16.0934 0 0
5:35 pm 17:35 Cloudy 46 8 23 -5 40 40 SSW 16 26 30 1016 10 16.0934 0 0
5:55 pm 17:55 Cloudy 46 8 23 -5 40 40 SSW 12 19 29.97 1015 10 16.0934 0 0
6:15 pm 18:15 Cloudy 46 8 23 -5 40 40 S 17 28 29.97 1015 10 16.0934 0 0
6:35 pm 18:35 Cloudy 46 8 23 -5 40 40 SSW 14 22 29.97 1015 10 16.0934 0 0
9:55 pm 21:55 Cloudy 45 7 25 -4 46 46 undefined N/A 29.97 1015 10 16.0934 0 0
10:15 pm 22:15 Cloudy 45 7 27 -3 49 49 undefined N/A 29.97 1015 10 16.0934 0 0
10:35 pm 22:35 Cloudy 45 7 27 -3 49 49 SW 6 9 29.97 1015 10 16.0934 0 0
10:55 pm 22:55 Cloudy 45 7 27 -3 49 49 undefined N/A 29.97 1015 10 16.0934 0 0
11:15 pm 23:15 Cloudy 45 7 27 -3 49 49 undefined N/A 29.97 1015 10 16.0934 0 0
11:35 pm 23:35 Cloudy 43 6 27 -3 53 53 undefined N/A 30 1016 10 16.0934 0 0
11:55 pm 23:55 Cloudy 43 6 27 -3 53 53 SW 5 7 30 1016 10 16.0934 0 0

Powered by AerisWeather